Overview Statistics Trail Chart Weather Telemetry Raw packets
 

This is the latest recevied weather packets stored in our database for station/object K4MGY-13. If no packets are shown the sender has not sent any weather packets the latest 10 day(s).

<< 1 2 3 4 5 >>
Time Temp. Humidity Pressure Rain* Wind** Luminosity Snow
1777725483 9.44° C 69% 1017.4 hPa 0 mm - - -
1777725184 8.89° C 70% 1017.6 hPa 0 mm - - -
1777724882 8.89° C 71% 1017.6 hPa 0 mm - - -
1777724553 8.33° C 72% 1017.6 hPa 0 mm - - -
1777723923 8.33° C 75% 1017.6 hPa 0 mm - - -
1777723623 8.33° C 75% 1017.6 hPa 0 mm - - -
1777723293 7.78° C 74% 1017.4 hPa 0 mm - - -
1777722963 7.78° C 74% 1017.4 hPa 0 mm - - -
1777722662 7.78° C 74% 1017.3 hPa 0 mm - - -
1777722362 8.33° C 73% 1017.3 hPa 0 mm - - -
1777721732 7.78° C 72% 1017.1 hPa 0 mm - - -
1777721403 8.33° C 71% 1016.9 hPa 0 mm - - -
1777721102 8.33° C 72% 1016.9 hPa 0 mm - - -
1777720802 8.33° C 72% 1016.9 hPa 0 mm - - -
1777720506 8.33° C 72% 1017.1 hPa 0 mm - - -
1777720202 8.33° C 72% 1017.1 hPa 0 mm - - -
1777719874 7.78° C 73% 1016.9 hPa 0 mm - - -
1777719542 8.33° C 73% 1016.9 hPa 0 mm - - -
1777719213 8.33° C 73% 1016.9 hPa 0 mm - - -
1777718884 8.33° C 72% 1016.6 hPa 0 mm - - -
1777718583 8.33° C 70% 1016.6 hPa 0 mm - - -
1777717922 8.33° C 68% 1016.6 hPa 0 mm - - -
1777717594 8.89° C 69% 1016.6 hPa 0 mm - - -
1777717262 8.89° C 67% 1016.4 hPa 0 mm - - -
1777716962 8.89° C 68% 1016.6 hPa 0 mm - - -

* Rain latest hour (hover to see other rain measurements)
** Current wind speed in m/s (hover to see current wind gust speed)